Location: Slidell
(30.2789°N, 89.7378°W)
Time: 17:48:45
(UTC-06:00)

Daily predictions for brighter satellites

Satellite Brightness Start Highest point End
(mag) Time Altitude Azimuth Time Altitude Azimuth Time Altitude Azimuth
CZ-3A R/B 4.1 17:09:22 10° WNW 17:13:06 29° NNW 17:25:14 10° NE
MOS 1 4.4 17:12:10 10° SSE 17:17:40 56° ENE 17:23:11 10° N
CRYOSAT 2 4.4 17:15:01 10° NNE 17:19:54 66° E 17:24:44 10° S
CORIOLIS 4.4 17:15:00 10° SE 17:20:09 46° ENE 17:25:18 10° N
NOSS 3-1 (C) 4.5 17:13:55 10° NNW 17:21:49 76° WSW 17:30:15 10° SSE
SPOT 3 Rocket 3.6 17:18:31 10° SSE 17:23:37 60° ENE 17:28:43 10° N
PAYLOAD A 3.9 17:19:15 10° SSE 17:23:58 88° WSW 17:28:51 10° NNW
SMAP 3.1 17:20:58 10° SSE 17:25:31 58° ENE 17:30:05 10° N
YAOGAN 1 2.7 17:22:47 10° SSE 17:26:59 54° ENE 17:31:13 10° N
Cosmos 2278 Rocket 2.5 17:23:47 10° S 17:29:07 46° ESE 17:34:31 10° NNE
COSMOS 2406 3.2 17:31:03 10° NNW 17:36:46 70° ENE 17:42:29 10° SSE
SL-8 Rocket 3.9 17:31:47 10° N 17:37:55 69° E 17:44:01 10° SSE
EP 2 4.2 17:35:53 10° SSW 17:38:38 89° WNW 17:41:13 10° NNE
ASTRO F (AKARI) 4.2 17:36:14 10° N 17:39:23 86° WNW 17:42:31 10° SSW
IDEFIX/ARIANE 42P 2.5 17:34:42 10° SSE 17:39:54 84° ENE 17:45:07 10° N
USA 32 4.1 17:34:55 10° S 17:40:08 88° W 17:45:23 10° N
Cosmos 1484 Rocket 3.4 17:40:45 10° SE 17:44:07 31° ENE 17:47:28 10° NNE
SJ-7 4.5 17:40:06 10° SSE 17:44:17 87° ENE 17:48:32 10° N
CZ-3B DEB 2.8 17:43:50 10° WSW 17:46:47 35° NNW 17:53:18 10° NNE
Meteor 1-5 Rocket 4.3 17:41:49 10° N 17:47:16 81° W 17:52:54 10° S
Cosmos 2366 rocket 4.1 17:41:47 10° N 17:48:02 60° E 17:54:13 10° SSE
OTV 4 1.4 17:45:19 10° NW 17:48:03 31° NNE 17:49:39 19° ENE
Cosmos 2218 Rocket 3.9 17:43:36 10° N 17:49:52 72° E 17:56:02 10° SSE
Meteor 2-19 Rocket 4.4 17:45:47 10° N 17:51:52 80° E 17:57:54 10° S
CZ-4 R/B 4.4 17:48:19 10° SSE 17:52:26 84° E 17:56:37 10° N
SKYMED 2 3.5 17:49:06 10° NNE 17:53:26 67° ESE 17:57:43 10° S
Cosmos 1959 Rocket 4.4 17:47:44 10° N 17:53:56 79° E 18:00:11 10° S
Cosmos 1455 Rocket 3.1 17:51:10 10° N 17:55:31 60° E 17:59:53 10° SSE
Cosmos 2082 Rocket 4.1 17:57:28 10° NNE 17:57:45 11° NE 17:57:45 11° NE
NOSS 3-3 (A) 4.0 17:56:49 10° SSW 18:02:54 82° WNW 18:09:24 10° NNE
NOSS 3-3 (C) 4.0 17:56:55 10° SSW 18:03:00 83° WNW 18:09:29 10° NNE
Delta 2 Rocket 3.4 17:59:22 10° WSW 18:03:13 66° SSE 18:05:41 24° ENE
BREEZE-M DEB (TANK) 3.0 18:00:30 10° NW 18:05:21 85° NE 18:09:02 10° SE
Okean 1 3.4 18:04:31 10° S 18:08:32 79° W 18:12:36 10° N
Cosmos 494 Rocket 4.0 18:04:49 10° N 18:09:58 56° ENE 18:15:06 10° SSE
Hubble Space Telescope 2.5 18:11:00 10° W 18:14:37 29° SSW 18:18:14 10° SE
Cosmos 1500 3.4 18:11:03 10° N 18:14:44 45° E 18:18:25 10° SSE
Meteor 2-4 Rocket 4.4 18:12:37 10° SSE 18:17:15 29° E 18:17:59 28° ENE
ATLAS 2AS CENTAUR R/B 2.9 18:09:52 10° NNW 18:17:47 63° ENE 18:25:03 10° SE
Meteor 1-28 Rocket 3.1 18:15:04 15° NNE 18:18:10 75° E 18:21:57 10° S
Cosmos 2251 Rocket 3.5 18:18:12 10° NNW 18:23:35 89° WSW 18:28:52 10° SSE
GRACE-2 3.8 18:24:48 10° S 18:27:27 78° SSW 18:27:27 78° SSW
GRACE-1 3.9 18:25:14 10° S 18:27:57 79° WSW 18:27:57 79° WSW
Cosmos 1346 Rocket 3.1 18:25:36 10° SSW 18:29:31 66° W 18:32:44 14° N
SL-27 R/B 3.9 18:28:45 10° NNW 18:32:12 40° WSW 18:35:35 10° S
Tiangong 1 1.7 18:31:26 10° WSW 18:34:09 46° NW 18:34:09 46° NW
Nadezhda 3 Rocket 4.0 18:31:43 10° S 18:37:52 81° W 18:44:07 10° N
TIMED 4.4 18:33:53 10° SSW 18:38:14 89° WNW 18:39:43 41° NNE
COSMO-SKYMED 1 4.4 18:37:33 10° NNW 18:41:19 30° WNW 18:45:05 10° SW
GEOS 3 Rocket 3.4 18:39:07 15° SE 18:43:27 76° ENE 18:48:33 10° NNW
Meteor 2-21 4.4 18:38:27 10° N 18:44:38 86° W 18:50:46 10° S
Cosmos 2297 4.1 18:50:51 10° SSW 18:56:25 61° WNW 18:59:27 27° N
ATLAS 3B CENTAUR R/B 3.0 18:40:51 10° W 18:57:56 78° S 19:00:10 49° ESE
NOSS 2-1 (D) 4.0 18:57:34 10° SW 19:00:47 51° W 19:00:47 51° W
NOSS 2-1 (C) 4.0 18:58:16 10° SW 19:01:25 51° WSW 19:01:25 51° WSW
Cosmos 2056 Rocket 4.1 19:05:23 10° S 19:09:11 46° S 19:09:11 46° S
Aurora 2 Rocket 4.4 19:01:30 10° WSW 19:11:42 58° S 19:13:55 47° SE
Cosmos 1025 Rocket 4.2 19:12:17 10° SSW 19:15:21 40° SW 19:15:21 40° SW
FALCON 9 R/B 3.0 19:08:15 10° W 19:25:55 67° N 19:26:28 64° NNE
Mugunghwa Rocket 4.3 19:25:10 10° WSW 19:32:41 66° S 19:32:41 66° S
Cosmos 2082 Rocket 4.4 19:38:45 10° NNW 19:39:41 15° NNW 19:39:41 15° NNW
